#timestamp,LO_Frequency,Hit 
1498147215.7,286046694.3,N
1498147235.6,286046696.7,N
1498147255.4,286046696.0,N
1498147275.2,286046696.0,N
1498147295.1,286046696.2,N
1498147296.0,286046696.2,N
1498147315.8,286046698.7,N
1498147335.7,286046695.8,N
1498147355.5,286046698.6,N
1498147375.3,286046696.3,N
1498147395.2,286046696.3,N
1498147415.0,286046696.0,N
1498147415.9,286046696.0,N
1498147435.7,286046698.1,N
1498147455.6,286046695.7,N
1498147475.4,286046698.5,N
1498147495.3,286046698.3,N
1498147515.1,286046698.5,N
1498147516.0,286046698.5,N
1498147535.8,286046698.3,N
1498147555.7,286046697.2,N
1498147575.5,286046694.2,N
1498147595.3,286046697.0,N
1498147615.2,286046696.7,N
1498147635.0,286046696.8,N
1498147635.9,286046696.8,N
1498147655.8,286046694.2,N
1498147675.6,286046696.4,N
1498147695.4,286046696.3,N
1498147715.3,286046697.2,N
1498147735.1,286046698.4,N
1498147755.8,286046697.0,N
1498147775.7,286046698.0,N
1498147795.5,286046698.7,N
1498147815.4,286046698.8,N
1498147835.2,286046698.4,N
1498147855.0,286046697.8,N
1498147855.9,286046697.8,N
1498147875.8,286046698.0,N
1498147895.6,286046697.9,N
1498147915.5,286046696.6,N
1498147935.3,286046697.6,N
1498147955.1,286046700.0,N
1498147975.9,286046699.9,N
1498147995.7,286046700.4,N
1498148015.6,286046700.4,N
1498148035.4,286046699.9,N
1498148055.2,286046699.9,N
1498148075.1,286046700.3,N
1498148076.0,286046700.3,N
1498148095.8,286046697.4,N
1498148115.6,286046698.8,N
1498148135.5,286046697.6,N
1498148155.3,286046700.0,N
1498148175.2,286046700.2,N
1498148195.9,286046697.6,N
1498148215.7,286046695.7,N
1498148235.6,286046700.3,N
1498148255.4,286046697.8,N
1498148275.2,286046699.6,N
1498148295.1,286046698.1,N
1498148296.0,286046698.1,N
1498148315.8,286046699.1,N
1498148335.7,286046699.4,N
1498148355.5,286046699.0,N
1498148375.3,286046700.3,N
1498148395.2,286046699.9,N
1498148415.0,286046699.4,N
1498148415.9,286046699.4,N
1498148435.8,286046700.0,N
1498148455.6,286046699.1,N
1498148475.4,286046697.3,N
1498148495.3,286046701.1,N
1498148515.1,286046700.2,N
1498148516.0,286046700.2,N
1498148535.8,286046698.0,N
1498148555.7,286046700.3,N
1498148575.5,286046699.7,N
1498148595.3,286046697.3,N
1498148615.2,286046697.3,N
1498148635.0,286046699.1,N
1498148635.9,286046699.1,N
1498148655.8,286046700.2,N
1498148675.6,286046697.6,N
1498148695.4,286046697.7,N
1498148715.3,286046699.7,N
1498148735.1,286046697.8,N
1498148755.8,286046697.9,N
1498148775.7,286046698.2,N
1498148795.5,286046698.1,N
1498148815.4,286046700.3,N
1498148835.2,286046699.7,N
1498148855.0,286046699.1,N
1498148855.9,286046699.1,N
1498148875.8,286046699.6,N
1498148895.6,286046699.9,N
1498148915.4,286046700.2,N
1498148935.3,286046699.2,N
1498148955.1,286046700.4,N
1498148975.9,286046699.4,N
1498148995.7,286046700.4,N
1498149015.5,286046697.7,N
1498149035.4,286046699.3,N
1498149055.2,286046701.8,N
1498149075.0,286046698.3,N
1498149075.9,286046698.3,N
1498149095.8,286046695.7,N
1498149115.6,286046698.8,N
1498149135.5,286046698.8,N
1498149155.3,286046698.2,N
1498149175.1,286046698.7,N
1498149195.9,286046698.4,N
1498149215.7,286046698.3,N
1498149235.5,286046698.2,N
1498149255.4,286046697.8,N
1498149275.2,286046700.3,N
1498149295.1,286046700.2,N
1498149296.0,286046700.2,N
1498149315.8,286046699.5,N
1498149335.6,286046699.7,N
1498149355.5,286046699.4,N
1498149375.3,286046698.9,N
1498149395.2,286046698.5,N
1498149415.9,286046700.3,N
1498149435.7,286046699.4,N
1498149455.6,286046701.2,N
1498149475.4,286046701.5,N
1498149495.2,286046702.0,N
1498149515.1,286046701.2,N
1498149516.0,286046701.2,N
1498149535.8,286046701.5,N
1498149555.7,286046699.0,N
1498149575.5,286046701.6,N
1498149595.3,286046701.1,N
1498149615.2,286046700.9,N
1498149635.9,286046702.5,N
1498149655.7,286046705.2,N
1498149675.6,286046702.3,N
1498149695.4,286046702.0,N
1498149715.3,286046701.6,N
1498149735.1,286046700.9,N
1498149736.0,286046700.9,N
1498149755.8,286046701.4,N
1498149775.7,286046698.9,N
1498149795.5,286046701.7,N
1498149815.3,286046701.2,N
1498149835.2,286046700.7,N
1498149855.0,286046701.4,N
1498149855.9,286046701.4,N
1498149875.8,286046703.5,N
1498149895.6,286046703.3,N
1498149915.4,286046701.3,N
1498149935.3,286046701.1,N
1498149955.1,286046701.0,N
1498149975.9,286046703.3,N
1498149995.7,286046699.1,N
1498150015.5,286046700.6,N
1498150035.4,286046701.5,N
1498150055.2,286046701.9,N
1498150075.0,286046701.6,N
1498150075.9,286046701.6,N
1498150095.8,286046701.5,N
1498150115.6,286046701.5,N
1498150135.5,286046699.0,N
1498150155.3,286046700.8,N
1498150175.1,286046701.4,N
1498150195.9,286046698.9,N
1498150215.7,286046703.6,N
1498150235.5,286046701.4,N
1498150255.4,286046701.4,N
1498150275.2,286046701.8,N
1498150295.1,286046701.8,N
1498150296.0,286046701.8,N
1498150315.8,286046699.5,N
1498150335.6,286046700.8,N
1498150355.5,286046703.4,N
1498150375.3,286046703.1,N
1498150395.2,286046701.4,N
1498150415.9,286046701.9,N
1498150435.7,286046701.1,N
1498150455.6,286046701.4,N
1498150475.4,286046701.6,N
1498150495.2,286046701.4,N
1498150515.1,286046700.5,N
1498150516.0,286046700.5,N
1498150535.8,286046700.9,N
1498150555.7,286046701.5,N
1498150575.5,286046700.6,N
1498150595.3,286046700.7,N
1498150615.2,286046703.6,N
1498150635.0,286046702.9,N
1498150635.9,286046702.9,N
1498150655.7,286046703.5,N
1498150675.6,286046700.7,N
1498150695.4,286046700.7,N
1498150715.3,286046702.9,N
1498150735.1,286046701.3,N
1498150736.0,286046701.3,N
1498150755.8,286046703.6,N
1498150775.7,286046702.9,N
1498150795.5,286046702.3,N
